SHIJIAN-25 (SJ-25)

Last updated on Tue Sep 22 2026 00:03:16 GMT+0000 (Coordinated Universal Time)

1 62485U 25002A 26264.63081154 -.00000349 00000+0 00000+0 0 9997 2 62485 5.3374 60.4993 0047062 179.8927 114.7094 1.00271351 6329
UTC large
Height (km)
Speed (km/s)
/
Latitude / Longitude
Inclination (degrees)
Orbital Period (minutes)
Azimuth
Elevation
Range (km)
Doppler Factor

Next 0 passes for location: London (51.5072 / 0.1276)

No passes found over London.
SHIJIAN-25 (SJ-25)